Year,Month,Day,Hour,Minute,Value (Times are PST for windgust in km/hr)
2013,02,24,00,00,3.20
2013,02,24,00,01,4.80
2013,02,24,00,02,4.80
2013,02,24,00,03,4.80
2013,02,24,00,04,4.80
2013,02,24,00,05,3.20
2013,02,24,00,06,6.40
2013,02,24,00,07,4.80
2013,02,24,00,08,4.80
2013,02,24,00,09,3.20
2013,02,24,00,10,4.80
2013,02,24,00,11,3.20
2013,02,24,00,12,3.20
2013,02,24,00,13,3.20
2013,02,24,00,14,4.80
2013,02,24,00,15,4.80
2013,02,24,00,16,4.80
2013,02,24,00,17,4.80
2013,02,24,00,18,4.80
2013,02,24,00,19,6.40
2013,02,24,00,20,6.40
2013,02,24,00,21,8.10
2013,02,24,00,22,6.40
2013,02,24,00,23,4.80
2013,02,24,00,24,4.80
2013,02,24,00,25,17.70
2013,02,24,00,26,11.30
2013,02,24,00,27,6.40
2013,02,24,00,28,9.60
2013,02,24,00,29,6.40
2013,02,24,00,30,4.80
2013,02,24,00,31,6.40
2013,02,24,00,32,6.40
2013,02,24,00,33,8.10
2013,02,24,00,34,8.10
2013,02,24,00,35,6.40
2013,02,24,00,36,6.40
2013,02,24,00,37,4.80
2013,02,24,00,38,4.80
2013,02,24,00,39,6.40
2013,02,24,00,40,6.40
2013,02,24,00,41,4.80
2013,02,24,00,42,6.40
2013,02,24,00,43,9.60
2013,02,24,00,44,8.10
2013,02,24,00,45,3.20
2013,02,24,00,46,3.20
2013,02,24,00,47,6.40
2013,02,24,00,48,8.10
2013,02,24,00,49,8.10
2013,02,24,00,50,6.40
2013,02,24,00,51,8.10
2013,02,24,00,52,4.80
2013,02,24,00,53,4.80
2013,02,24,00,54,4.80
2013,02,24,00,55,4.80
2013,02,24,00,56,6.40
2013,02,24,00,57,4.80
2013,02,24,00,58,8.10
2013,02,24,00,59,6.40
2013,02,24,01,00,9.60
2013,02,24,01,01,8.10
2013,02,24,01,02,4.80
2013,02,24,01,03,6.40
2013,02,24,01,04,6.40
2013,02,24,01,05,6.40
2013,02,24,01,06,8.10
2013,02,24,01,07,9.60
2013,02,24,01,08,11.30
2013,02,24,01,09,6.40
2013,02,24,01,10,6.40
2013,02,24,01,11,9.60
2013,02,24,01,12,6.40
2013,02,24,01,13,6.40
2013,02,24,01,14,6.40
2013,02,24,01,15,8.10
2013,02,24,01,16,8.10
2013,02,24,01,17,8.10
2013,02,24,01,18,8.10
2013,02,24,01,19,9.60
2013,02,24,01,20,6.40
2013,02,24,01,21,9.60
2013,02,24,01,22,8.10
2013,02,24,01,23,9.60
2013,02,24,01,24,9.60
2013,02,24,01,25,9.60
2013,02,24,01,26,9.60
2013,02,24,01,27,9.60
2013,02,24,01,28,9.60
2013,02,24,01,29,8.10
2013,02,24,01,30,8.10
2013,02,24,01,31,11.30
2013,02,24,01,32,6.40
2013,02,24,01,33,9.60
2013,02,24,01,34,8.10
2013,02,24,01,35,8.10
2013,02,24,01,36,8.10
2013,02,24,01,37,11.30
2013,02,24,01,38,9.60
2013,02,24,01,39,17.70
2013,02,24,01,40,9.60
2013,02,24,01,41,8.10
2013,02,24,01,42,14.50
2013,02,24,01,43,8.10
2013,02,24,01,44,6.40
2013,02,24,01,45,6.40
2013,02,24,01,46,6.40
2013,02,24,01,47,6.40
2013,02,24,01,48,4.80
2013,02,24,01,49,4.80
2013,02,24,01,50,8.10
2013,02,24,01,51,9.60
2013,02,24,01,52,9.60
2013,02,24,01,53,9.60
2013,02,24,01,54,8.10
2013,02,24,01,55,8.10
2013,02,24,01,56,19.30
2013,02,24,01,57,17.70
2013,02,24,01,58,9.60
2013,02,24,01,59,8.10
2013,02,24,02,00,4.80
2013,02,24,02,01,8.10
2013,02,24,02,02,4.80
2013,02,24,02,03,8.10
2013,02,24,02,04,6.40
2013,02,24,02,05,6.40
2013,02,24,02,06,8.10
2013,02,24,02,07,8.10
2013,02,24,02,08,4.80
2013,02,24,02,09,4.80
2013,02,24,02,10,6.40
2013,02,24,02,11,8.10
2013,02,24,02,12,8.10
2013,02,24,02,13,4.80
2013,02,24,02,14,3.20
2013,02,24,02,15,6.40
2013,02,24,02,16,6.40
2013,02,24,02,17,4.80
2013,02,24,02,18,4.80
2013,02,24,02,19,6.40
2013,02,24,02,20,6.40
2013,02,24,02,21,4.80
2013,02,24,02,22,6.40
2013,02,24,02,23,4.80
2013,02,24,02,24,4.80
2013,02,24,02,25,3.20
2013,02,24,02,26,8.10
2013,02,24,02,27,6.40
2013,02,24,02,28,6.40
2013,02,24,02,29,4.80
2013,02,24,02,30,6.40
2013,02,24,02,31,4.80
2013,02,24,02,32,6.40
2013,02,24,02,33,9.60
2013,02,24,02,34,8.10
2013,02,24,02,35,6.40
2013,02,24,02,36,8.10
2013,02,24,02,37,6.40
2013,02,24,02,38,6.40
2013,02,24,02,39,4.80
2013,02,24,02,40,6.40
2013,02,24,02,41,4.80
2013,02,24,02,42,3.20
2013,02,24,02,43,4.80
2013,02,24,02,44,4.80
2013,02,24,02,45,4.80
2013,02,24,02,46,3.20
2013,02,24,02,47,4.80
2013,02,24,02,48,3.20
2013,02,24,02,49,3.20
2013,02,24,02,50,8.10
2013,02,24,02,51,6.40
2013,02,24,02,52,4.80
2013,02,24,02,53,4.80
2013,02,24,02,54,4.80
2013,02,24,02,55,3.20
2013,02,24,02,56,3.20
2013,02,24,02,57,3.20
2013,02,24,02,58,4.80
2013,02,24,02,59,4.80
2013,02,24,03,00,4.80
2013,02,24,03,01,3.20
2013,02,24,03,02,4.80
2013,02,24,03,03,4.80
2013,02,24,03,04,4.80
2013,02,24,03,05,6.40
2013,02,24,03,06,6.40
2013,02,24,03,07,6.40
2013,02,24,03,08,4.80
2013,02,24,03,09,3.20
2013,02,24,03,10,4.80
2013,02,24,03,11,4.80
2013,02,24,03,12,4.80
2013,02,24,03,13,4.80
2013,02,24,03,14,3.20
2013,02,24,03,15,3.20
2013,02,24,03,16,4.80
2013,02,24,03,17,3.20
2013,02,24,03,18,1.60
2013,02,24,03,19,3.20
2013,02,24,03,20,3.20
2013,02,24,03,21,3.20
2013,02,24,03,22,1.60
2013,02,24,03,23,1.60
2013,02,24,03,24,1.60
2013,02,24,03,25,1.60
2013,02,24,03,26,3.20
2013,02,24,03,27,3.20
2013,02,24,03,28,3.20
2013,02,24,03,29,1.60
2013,02,24,03,30,3.20
2013,02,24,03,31,3.20
2013,02,24,03,32,1.60
2013,02,24,03,33,3.20
2013,02,24,03,34,3.20
2013,02,24,03,35,3.20
2013,02,24,03,36,4.80
2013,02,24,03,37,4.80
2013,02,24,03,38,4.80
2013,02,24,03,39,4.80
2013,02,24,03,40,4.80
2013,02,24,03,41,3.20
2013,02,24,03,42,3.20
2013,02,24,03,43,1.60
2013,02,24,03,44,1.60
2013,02,24,03,45,3.20
2013,02,24,03,46,3.20
2013,02,24,03,47,1.60
2013,02,24,03,48,1.60
2013,02,24,03,49,4.80
2013,02,24,03,50,3.20
2013,02,24,03,51,1.60
2013,02,24,03,52,1.60
2013,02,24,03,53,3.20
2013,02,24,03,54,4.80
2013,02,24,03,55,1.60
2013,02,24,03,56,1.60
2013,02,24,03,57,1.60
2013,02,24,03,58,3.20
2013,02,24,03,59,3.20
2013,02,24,04,00,4.80
2013,02,24,04,01,3.20
2013,02,24,04,02,3.20
2013,02,24,04,03,3.20
2013,02,24,04,04,3.20
2013,02,24,04,05,4.80
2013,02,24,04,06,4.80
2013,02,24,04,07,1.60
2013,02,24,04,08,1.60
2013,02,24,04,12,1.60
2013,02,24,04,13,1.60
2013,02,24,04,14,1.60
2013,02,24,04,15,3.20
2013,02,24,04,18,1.60
2013,02,24,04,20,1.60
2013,02,24,04,21,1.60
2013,02,24,04,22,1.60
2013,02,24,04,23,4.80
2013,02,24,04,24,6.40
2013,02,24,04,25,6.40
2013,02,24,04,26,6.40
2013,02,24,04,27,6.40
2013,02,24,04,28,4.80
2013,02,24,04,29,6.40
2013,02,24,04,30,6.40
2013,02,24,04,31,4.80
2013,02,24,04,32,4.80
2013,02,24,04,33,4.80
2013,02,24,04,34,4.80
2013,02,24,04,35,4.80
2013,02,24,04,36,4.80
2013,02,24,04,37,4.80
2013,02,24,04,38,4.80
2013,02,24,04,39,4.80
2013,02,24,04,40,4.80
2013,02,24,04,41,4.80
2013,02,24,04,42,3.20
2013,02,24,04,43,4.80
2013,02,24,04,44,4.80
2013,02,24,04,45,4.80
2013,02,24,04,46,1.60
2013,02,24,04,47,3.20
2013,02,24,04,48,1.60
2013,02,24,04,49,1.60
2013,02,24,04,50,1.60
2013,02,24,04,51,3.20
2013,02,24,04,52,3.20
2013,02,24,04,53,3.20
2013,02,24,04,54,4.80
2013,02,24,04,55,4.80
2013,02,24,04,56,4.80
2013,02,24,04,57,3.20
2013,02,24,04,58,3.20
2013,02,24,04,59,1.60
2013,02,24,05,00,1.60
2013,02,24,05,01,1.60
2013,02,24,05,02,1.60
2013,02,24,05,03,3.20
2013,02,24,05,04,1.60
2013,02,24,05,05,1.60
2013,02,24,05,10,1.60
2013,02,24,05,11,1.60
2013,02,24,05,12,1.60
2013,02,24,05,13,1.60
2013,02,24,05,14,1.60
2013,02,24,05,15,1.60
2013,02,24,05,16,1.60
2013,02,24,05,17,3.20
2013,02,24,05,18,3.20
2013,02,24,05,19,1.60
2013,02,24,05,20,1.60
2013,02,24,05,21,1.60
2013,02,24,05,22,1.60
2013,02,24,05,24,1.60
2013,02,24,05,27,1.60
2013,02,24,05,28,1.60
2013,02,24,05,29,1.60
2013,02,24,05,30,1.60
2013,02,24,05,31,1.60
2013,02,24,05,32,1.60
2013,02,24,05,33,3.20
2013,02,24,05,34,1.60
2013,02,24,05,35,3.20
2013,02,24,05,36,1.60
2013,02,24,05,37,1.60
2013,02,24,05,38,1.60
2013,02,24,05,39,1.60
2013,02,24,05,40,1.60
2013,02,24,05,52,1.60
2013,02,24,05,53,1.60
2013,02,24,05,54,1.60
2013,02,24,05,57,1.60
2013,02,24,05,58,1.60
2013,02,24,05,59,3.20
2013,02,24,06,00,1.60
2013,02,24,06,01,1.60
2013,02,24,06,02,1.60
2013,02,24,06,05,1.60
2013,02,24,06,06,1.60
2013,02,24,06,07,1.60
2013,02,24,06,08,1.60
2013,02,24,06,09,1.60
2013,02,24,06,10,1.60
2013,02,24,06,11,1.60
2013,02,24,06,12,1.60
2013,02,24,06,13,1.60
2013,02,24,06,14,3.20
2013,02,24,06,15,1.60
2013,02,24,06,16,1.60
2013,02,24,06,17,1.60
2013,02,24,06,18,3.20
2013,02,24,06,19,1.60
2013,02,24,06,20,1.60
2013,02,24,06,21,3.20
2013,02,24,06,22,3.20
2013,02,24,06,23,3.20
2013,02,24,06,24,1.60
2013,02,24,06,25,1.60
2013,02,24,06,26,3.20
2013,02,24,06,27,1.60
2013,02,24,06,28,1.60
2013,02,24,06,29,3.20
2013,02,24,06,30,1.60
2013,02,24,06,31,1.60
2013,02,24,06,32,1.60
2013,02,24,06,33,1.60
2013,02,24,06,34,1.60
2013,02,24,06,35,1.60
2013,02,24,06,36,1.60
2013,02,24,06,37,1.60
2013,02,24,06,39,1.60
2013,02,24,06,40,3.20
2013,02,24,06,41,1.60
2013,02,24,06,42,1.60
2013,02,24,06,43,3.20
2013,02,24,06,44,3.20
2013,02,24,06,45,3.20
2013,02,24,06,46,1.60
2013,02,24,06,47,3.20
2013,02,24,06,48,3.20
2013,02,24,06,49,3.20
2013,02,24,06,50,3.20
2013,02,24,06,51,3.20
2013,02,24,06,52,3.20
2013,02,24,06,53,3.20
2013,02,24,06,54,3.20
2013,02,24,06,55,3.20
2013,02,24,06,56,1.60
2013,02,24,06,57,1.60
2013,02,24,06,58,1.60
2013,02,24,06,59,1.60
2013,02,24,07,00,1.60
2013,02,24,07,03,1.60
2013,02,24,07,04,3.20
2013,02,24,07,05,3.20
2013,02,24,07,06,1.60
2013,02,24,07,07,3.20
2013,02,24,07,08,3.20
2013,02,24,07,09,1.60
2013,02,24,07,10,1.60
2013,02,24,07,11,1.60
2013,02,24,07,12,1.60
2013,02,24,07,13,1.60
2013,02,24,07,14,1.60
2013,02,24,07,15,1.60
2013,02,24,07,16,1.60
2013,02,24,07,19,1.60
2013,02,24,07,21,1.60
2013,02,24,07,22,1.60
2013,02,24,07,23,1.60
2013,02,24,07,24,3.20
2013,02,24,07,25,3.20
2013,02,24,07,26,1.60
2013,02,24,07,27,1.60
2013,02,24,07,28,3.20
2013,02,24,07,29,3.20
2013,02,24,07,30,3.20
2013,02,24,07,31,3.20
2013,02,24,07,32,3.20
2013,02,24,07,33,1.60
2013,02,24,07,34,1.60
2013,02,24,07,35,1.60
2013,02,24,07,36,3.20
2013,02,24,07,37,3.20
2013,02,24,07,38,1.60
2013,02,24,07,39,1.60
2013,02,24,07,40,3.20
2013,02,24,07,41,3.20
2013,02,24,07,42,1.60
2013,02,24,07,43,3.20
2013,02,24,07,44,3.20
2013,02,24,07,45,3.20
2013,02,24,07,46,3.20
2013,02,24,07,47,3.20
2013,02,24,07,48,1.60
2013,02,24,07,49,1.60
2013,02,24,07,50,1.60
2013,02,24,07,51,1.60
2013,02,24,07,52,1.60
2013,02,24,07,53,3.20
2013,02,24,07,54,3.20
2013,02,24,07,55,1.60
2013,02,24,07,56,3.20
2013,02,24,07,57,4.80
2013,02,24,07,58,6.40
2013,02,24,07,59,3.20
2013,02,24,08,00,6.40
2013,02,24,08,01,4.80
2013,02,24,08,02,3.20
2013,02,24,08,03,3.20
2013,02,24,08,04,4.80
2013,02,24,08,05,3.20
2013,02,24,08,06,6.40
2013,02,24,08,07,4.80
2013,02,24,08,08,6.40
2013,02,24,08,09,6.40
2013,02,24,08,10,6.40
2013,02,24,08,11,3.20
2013,02,24,08,12,4.80
2013,02,24,08,13,8.10
2013,02,24,08,14,8.10
2013,02,24,08,15,4.80
2013,02,24,08,16,9.60
2013,02,24,08,17,9.60
2013,02,24,08,18,8.10
2013,02,24,08,19,11.30
2013,02,24,08,20,9.60
2013,02,24,08,21,8.10
2013,02,24,08,22,9.60
2013,02,24,08,23,8.10
2013,02,24,08,24,4.80
2013,02,24,08,25,4.80
2013,02,24,08,26,8.10
2013,02,24,08,27,6.40
2013,02,24,08,28,4.80
2013,02,24,08,29,4.80
2013,02,24,08,30,4.80
2013,02,24,08,31,4.80
2013,02,24,08,32,4.80
2013,02,24,08,33,6.40
2013,02,24,08,34,6.40
2013,02,24,08,35,4.80
2013,02,24,08,36,8.10
2013,02,24,08,37,6.40
2013,02,24,08,38,6.40
2013,02,24,08,39,8.10
2013,02,24,08,40,6.40
2013,02,24,08,41,8.10
2013,02,24,08,42,8.10
2013,02,24,08,43,9.60
2013,02,24,08,44,9.60
2013,02,24,08,45,14.50
2013,02,24,08,46,9.60
2013,02,24,08,47,11.30
2013,02,24,08,48,11.30
2013,02,24,08,49,11.30
2013,02,24,08,50,11.30
2013,02,24,08,51,11.30
2013,02,24,08,52,14.50
2013,02,24,08,53,8.10
2013,02,24,08,54,9.60
2013,02,24,08,55,6.40
2013,02,24,08,56,11.30
2013,02,24,08,57,9.60
2013,02,24,08,58,8.10
2013,02,24,08,59,8.10
2013,02,24,09,00,4.80
2013,02,24,09,01,6.40
2013,02,24,09,02,9.60
2013,02,24,09,03,9.60
2013,02,24,09,04,11.30
2013,02,24,09,05,9.60
2013,02,24,09,06,6.40
2013,02,24,09,07,4.80
2013,02,24,09,08,4.80
2013,02,24,09,09,6.40
2013,02,24,09,10,6.40
2013,02,24,09,11,6.40
2013,02,24,09,12,9.60
2013,02,24,09,13,8.10
2013,02,24,09,14,8.10
2013,02,24,09,15,9.60
2013,02,24,09,16,8.10
2013,02,24,09,17,8.10
2013,02,24,09,18,8.10
2013,02,24,09,19,9.60
2013,02,24,09,20,8.10
2013,02,24,09,21,11.30
2013,02,24,09,22,9.60
2013,02,24,09,23,6.40
2013,02,24,09,24,6.40
2013,02,24,09,25,4.80
2013,02,24,09,26,11.30
2013,02,24,09,27,9.60
2013,02,24,09,28,9.60
2013,02,24,09,29,8.10
2013,02,24,09,30,4.80
2013,02,24,09,31,6.40
2013,02,24,09,32,6.40
2013,02,24,09,33,9.60
2013,02,24,09,34,11.30
2013,02,24,09,35,9.60
2013,02,24,09,36,6.40
2013,02,24,09,37,6.40
2013,02,24,09,38,6.40
2013,02,24,09,39,6.40
2013,02,24,09,40,8.10
2013,02,24,09,41,9.60
2013,02,24,09,42,6.40
2013,02,24,09,43,8.10
2013,02,24,09,44,8.10
2013,02,24,09,45,6.40
2013,02,24,09,46,4.80
2013,02,24,09,47,8.10
2013,02,24,09,48,11.30
2013,02,24,09,49,9.60
2013,02,24,09,50,8.10
2013,02,24,09,51,9.60
2013,02,24,09,52,9.60
2013,02,24,09,53,6.40
2013,02,24,09,54,8.10
2013,02,24,09,55,14.50
2013,02,24,09,56,16.10
2013,02,24,09,57,8.10
2013,02,24,09,58,8.10
2013,02,24,09,59,9.60
2013,02,24,10,00,9.60
2013,02,24,10,01,6.40
2013,02,24,10,02,4.80
2013,02,24,10,03,6.40
2013,02,24,10,04,8.10
2013,02,24,10,05,8.10
2013,02,24,10,06,4.80
2013,02,24,10,07,4.80
2013,02,24,10,08,8.10
2013,02,24,10,09,9.60
2013,02,24,10,10,9.60
2013,02,24,10,11,11.30
2013,02,24,10,12,9.60
2013,02,24,10,13,8.10
2013,02,24,10,14,9.60
2013,02,24,10,15,9.60
2013,02,24,10,16,8.10
2013,02,24,10,17,8.10
2013,02,24,10,18,8.10
2013,02,24,10,19,6.40
2013,02,24,10,20,6.40
2013,02,24,10,21,6.40
2013,02,24,10,22,9.60
2013,02,24,10,23,8.10
2013,02,24,10,24,8.10
2013,02,24,10,25,4.80
2013,02,24,10,26,1.60
2013,02,24,10,27,1.60
2013,02,24,10,28,1.60
2013,02,24,10,29,1.60
2013,02,24,10,30,1.60
2013,02,24,10,31,3.20
2013,02,24,10,32,3.20
2013,02,24,10,33,3.20
2013,02,24,10,35,1.60
2013,02,24,10,36,1.60
2013,02,24,10,37,1.60
2013,02,24,10,38,1.60
2013,02,24,10,40,1.60
2013,02,24,10,41,1.60
2013,02,24,10,42,1.60
2013,02,24,10,43,1.60
2013,02,24,10,45,1.60
2013,02,24,10,46,1.60
2013,02,24,10,47,1.60
2013,02,24,10,48,6.40
2013,02,24,10,49,6.40
2013,02,24,10,50,4.80
2013,02,24,10,51,8.10
2013,02,24,10,52,9.60
2013,02,24,10,53,8.10
2013,02,24,10,54,6.40
2013,02,24,10,55,9.60
2013,02,24,10,56,16.10
2013,02,24,10,57,14.50
2013,02,24,10,58,9.60
2013,02,24,10,59,6.40
2013,02,24,11,00,14.50
2013,02,24,11,01,11.30
2013,02,24,11,02,16.10
2013,02,24,11,03,14.50
2013,02,24,11,04,11.30
2013,02,24,11,05,16.10
2013,02,24,11,06,17.70
2013,02,24,11,07,17.70
2013,02,24,11,08,16.10
2013,02,24,11,09,11.30
2013,02,24,11,10,11.30
2013,02,24,11,11,9.60
2013,02,24,11,12,6.40
2013,02,24,11,13,6.40
2013,02,24,11,14,8.10
2013,02,24,11,15,9.60
2013,02,24,11,16,11.30
2013,02,24,11,17,11.30
2013,02,24,11,18,11.30
2013,02,24,11,19,9.60
2013,02,24,11,20,8.10
2013,02,24,11,21,9.60
2013,02,24,11,22,9.60
2013,02,24,11,23,9.60
2013,02,24,11,24,8.10
2013,02,24,11,25,9.60
2013,02,24,11,26,11.30
2013,02,24,11,27,14.50
2013,02,24,11,28,8.10
2013,02,24,11,29,14.50
2013,02,24,11,30,17.70
2013,02,24,11,31,9.60
2013,02,24,11,32,12.90
2013,02,24,11,33,9.60
2013,02,24,11,34,11.30
2013,02,24,11,35,9.60
2013,02,24,11,36,9.60
2013,02,24,11,37,9.60
2013,02,24,11,38,9.60
2013,02,24,11,39,8.10
2013,02,24,11,40,6.40
2013,02,24,11,41,9.60
2013,02,24,11,42,9.60
2013,02,24,11,43,16.10
2013,02,24,11,44,16.10
2013,02,24,11,45,16.10
2013,02,24,11,46,16.10
2013,02,24,11,47,11.30
2013,02,24,11,48,11.30
2013,02,24,11,49,6.40
2013,02,24,11,50,9.60
2013,02,24,11,51,4.80
2013,02,24,11,52,8.10
2013,02,24,11,53,6.40
2013,02,24,11,54,4.80
2013,02,24,11,55,4.80
2013,02,24,11,56,1.60
2013,02,24,11,57,1.60
2013,02,24,11,58,3.20
2013,02,24,11,59,4.80
2013,02,24,12,00,3.20
2013,02,24,12,01,1.60
2013,02,24,12,02,1.60
2013,02,24,12,03,3.20
2013,02,24,12,04,3.20
2013,02,24,12,05,3.20
2013,02,24,12,06,1.60
2013,02,24,12,07,1.60
2013,02,24,12,09,1.60
2013,02,24,12,10,1.60
2013,02,24,12,11,3.20
2013,02,24,12,12,3.20
2013,02,24,12,13,6.40
2013,02,24,12,14,1.60
2013,02,24,12,15,6.40
2013,02,24,12,16,8.10
2013,02,24,12,17,6.40
2013,02,24,12,18,6.40
2013,02,24,12,19,8.10
2013,02,24,12,20,6.40
2013,02,24,12,21,6.40
2013,02,24,12,22,9.60
2013,02,24,12,23,6.40
2013,02,24,12,24,8.10
2013,02,24,12,25,4.80
2013,02,24,12,26,6.40
2013,02,24,12,27,6.40
2013,02,24,12,28,4.80
2013,02,24,12,29,3.20
2013,02,24,12,30,3.20
2013,02,24,12,31,1.60
2013,02,24,12,32,3.20
2013,02,24,12,33,3.20
2013,02,24,12,34,3.20
2013,02,24,12,35,1.60
2013,02,24,12,36,1.60
2013,02,24,12,38,1.60
2013,02,24,12,39,3.20
2013,02,24,12,40,3.20
2013,02,24,12,41,3.20
2013,02,24,12,42,3.20
2013,02,24,12,43,1.60
2013,02,24,12,45,1.60
2013,02,24,12,47,3.20
2013,02,24,12,48,3.20
2013,02,24,12,49,3.20
2013,02,24,12,50,1.60
2013,02,24,12,51,1.60
2013,02,24,12,52,1.60
2013,02,24,12,53,3.20
2013,02,24,12,54,1.60
2013,02,24,12,55,3.20
2013,02,24,12,56,3.20
2013,02,24,12,57,3.20
2013,02,24,12,58,4.80
2013,02,24,12,59,3.20
2013,02,24,13,00,4.80
2013,02,24,13,01,4.80
2013,02,24,13,02,3.20
2013,02,24,13,03,3.20
2013,02,24,13,04,1.60
2013,02,24,13,05,4.80
2013,02,24,13,06,4.80
2013,02,24,13,07,1.60
2013,02,24,13,08,3.20
2013,02,24,13,09,1.60
2013,02,24,13,10,3.20
2013,02,24,13,11,1.60
2013,02,24,13,13,3.20
2013,02,24,13,14,3.20
2013,02,24,13,15,4.80
2013,02,24,13,16,4.80
2013,02,24,13,17,3.20
2013,02,24,13,18,3.20
2013,02,24,13,19,6.40
2013,02,24,13,20,4.80
2013,02,24,13,21,4.80
2013,02,24,13,22,3.20
2013,02,24,13,23,4.80
2013,02,24,13,24,1.60
2013,02,24,13,25,1.60
2013,02,24,13,26,1.60
2013,02,24,13,27,3.20
2013,02,24,13,28,1.60
2013,02,24,13,29,1.60
2013,02,24,13,30,1.60
2013,02,24,13,31,1.60
2013,02,24,13,32,1.60
2013,02,24,13,33,3.20
2013,02,24,13,34,3.20
2013,02,24,13,35,1.60
2013,02,24,13,36,3.20
2013,02,24,13,37,3.20
2013,02,24,13,38,3.20
2013,02,24,13,39,1.60
2013,02,24,13,40,3.20
2013,02,24,13,41,1.60
2013,02,24,13,42,4.80
2013,02,24,13,43,3.20
2013,02,24,13,44,3.20
2013,02,24,13,45,4.80
2013,02,24,13,46,4.80
2013,02,24,13,47,3.20
2013,02,24,13,48,3.20
2013,02,24,13,49,4.80
2013,02,24,13,50,6.40
2013,02,24,13,51,6.40
2013,02,24,13,52,6.40
2013,02,24,13,53,6.40
2013,02,24,13,54,6.40
2013,02,24,13,55,6.40
2013,02,24,13,56,6.40
2013,02,24,13,57,6.40
2013,02,24,13,58,4.80
2013,02,24,13,59,6.40
2013,02,24,14,00,4.80
2013,02,24,14,01,4.80
2013,02,24,14,02,6.40
2013,02,24,14,03,4.80
2013,02,24,14,04,4.80
2013,02,24,14,05,3.20
2013,02,24,14,06,3.20
2013,02,24,14,07,4.80
2013,02,24,14,08,4.80
2013,02,24,14,09,6.40
2013,02,24,14,10,8.10
2013,02,24,14,11,6.40
2013,02,24,14,12,4.80
2013,02,24,14,13,3.20
2013,02,24,14,14,3.20
2013,02,24,14,15,1.60
2013,02,24,14,16,3.20
2013,02,24,14,17,3.20
2013,02,24,14,18,3.20
2013,02,24,14,19,1.60
2013,02,24,14,20,1.60
2013,02,24,14,21,3.20
2013,02,24,14,22,1.60
2013,02,24,14,23,1.60
2013,02,24,14,24,1.60
2013,02,24,14,25,1.60
2013,02,24,14,26,3.20
2013,02,24,14,27,1.60
2013,02,24,14,28,3.20
2013,02,24,14,29,3.20
2013,02,24,14,30,3.20
2013,02,24,14,31,4.80
2013,02,24,14,32,4.80
2013,02,24,14,33,3.20
2013,02,24,14,34,3.20
2013,02,24,14,35,3.20
2013,02,24,14,36,4.80
2013,02,24,14,37,4.80
2013,02,24,14,38,1.60
2013,02,24,14,39,1.60
2013,02,24,14,40,1.60
2013,02,24,14,41,3.20
2013,02,24,14,42,3.20
2013,02,24,14,43,3.20
2013,02,24,14,44,1.60
2013,02,24,14,45,1.60
2013,02,24,14,46,1.60
2013,02,24,14,47,4.80
2013,02,24,14,48,4.80
2013,02,24,14,49,3.20
2013,02,24,14,50,3.20
2013,02,24,14,51,3.20
2013,02,24,14,52,3.20
2013,02,24,14,53,3.20
2013,02,24,14,54,3.20
2013,02,24,14,55,4.80
2013,02,24,14,56,4.80
2013,02,24,14,57,4.80
2013,02,24,14,58,3.20
2013,02,24,14,59,3.20
2013,02,24,15,00,4.80
2013,02,24,15,01,6.40
2013,02,24,15,02,4.80
2013,02,24,15,03,6.40
2013,02,24,15,04,4.80
2013,02,24,15,05,4.80
2013,02,24,15,06,4.80
2013,02,24,15,07,4.80
2013,02,24,15,08,3.20
2013,02,24,15,09,6.40
2013,02,24,15,10,4.80
2013,02,24,15,11,4.80
2013,02,24,15,12,6.40
2013,02,24,15,13,4.80
2013,02,24,15,14,6.40
2013,02,24,15,15,8.10
2013,02,24,15,16,1.60
2013,02,24,15,17,4.80
2013,02,24,15,18,4.80
2013,02,24,15,19,6.40
2013,02,24,15,20,9.60
2013,02,24,15,21,8.10
2013,02,24,15,22,8.10
2013,02,24,15,23,3.20
2013,02,24,15,24,3.20
2013,02,24,15,25,6.40
2013,02,24,15,26,4.80
2013,02,24,15,27,4.80
2013,02,24,15,28,3.20
2013,02,24,15,29,4.80
2013,02,24,15,30,6.40
2013,02,24,15,31,8.10
2013,02,24,15,32,4.80
2013,02,24,15,33,4.80
2013,02,24,15,34,4.80
2013,02,24,15,35,6.40
2013,02,24,15,36,8.10
2013,02,24,15,37,6.40
2013,02,24,15,38,4.80
2013,02,24,15,39,6.40
2013,02,24,15,40,6.40
2013,02,24,15,41,4.80
2013,02,24,15,42,6.40
2013,02,24,15,43,1.60
2013,02,24,15,44,3.20
2013,02,24,15,45,6.40
2013,02,24,15,46,6.40
2013,02,24,15,47,9.60
2013,02,24,15,48,8.10
2013,02,24,15,49,4.80
2013,02,24,15,50,6.40
2013,02,24,15,51,4.80
2013,02,24,15,52,4.80
2013,02,24,15,53,4.80
2013,02,24,15,54,6.40
2013,02,24,15,55,4.80
2013,02,24,15,56,8.10
2013,02,24,15,57,8.10
2013,02,24,15,58,8.10
2013,02,24,15,59,11.30
2013,02,24,16,00,8.10
2013,02,24,16,01,6.40
2013,02,24,16,02,4.80
2013,02,24,16,03,4.80
2013,02,24,16,04,6.40
2013,02,24,16,05,6.40
2013,02,24,16,06,8.10
2013,02,24,16,07,8.10
2013,02,24,16,08,4.80
2013,02,24,16,09,9.60
2013,02,24,16,10,6.40
2013,02,24,16,11,6.40
2013,02,24,16,12,8.10
2013,02,24,16,13,6.40
2013,02,24,16,14,6.40
2013,02,24,16,15,8.10
2013,02,24,16,16,8.10
2013,02,24,16,17,8.10
2013,02,24,16,18,6.40
2013,02,24,16,19,6.40
2013,02,24,16,20,4.80
2013,02,24,16,21,4.80
2013,02,24,16,22,4.80
2013,02,24,16,23,4.80
2013,02,24,16,24,4.80
2013,02,24,16,25,4.80
2013,02,24,16,26,4.80
2013,02,24,16,27,3.20
2013,02,24,16,28,6.40
2013,02,24,16,29,6.40
2013,02,24,16,30,6.40
2013,02,24,16,31,6.40
2013,02,24,16,32,6.40
2013,02,24,16,33,6.40
2013,02,24,16,34,3.20
2013,02,24,16,35,3.20
2013,02,24,16,36,6.40
2013,02,24,16,37,6.40
2013,02,24,16,38,3.20
2013,02,24,16,39,4.80
2013,02,24,16,40,4.80
2013,02,24,16,41,3.20
2013,02,24,16,42,3.20
2013,02,24,16,43,1.60
2013,02,24,16,44,3.20
2013,02,24,16,45,1.60
2013,02,24,16,46,1.60
2013,02,24,16,47,1.60
2013,02,24,16,48,1.60
2013,02,24,16,51,1.60
2013,02,24,16,52,1.60
2013,02,24,16,53,3.20
2013,02,24,16,54,3.20
2013,02,24,16,55,3.20
2013,02,24,16,56,3.20
2013,02,24,16,57,3.20
2013,02,24,16,58,3.20
2013,02,24,16,59,1.60
2013,02,24,17,00,4.80
2013,02,24,17,01,4.80
2013,02,24,17,02,4.80
2013,02,24,17,03,4.80
2013,02,24,17,04,4.80
2013,02,24,17,05,4.80
2013,02,24,17,06,3.20
2013,02,24,17,07,3.20
2013,02,24,17,08,3.20
2013,02,24,17,09,3.20
2013,02,24,17,10,4.80
2013,02,24,17,11,4.80
2013,02,24,17,12,4.80
2013,02,24,17,13,3.20
2013,02,24,17,14,4.80
2013,02,24,17,15,3.20
2013,02,24,17,16,4.80
2013,02,24,17,17,4.80
2013,02,24,17,18,4.80
2013,02,24,17,19,6.40
2013,02,24,17,20,4.80
2013,02,24,17,21,8.10
2013,02,24,17,22,4.80
2013,02,24,17,23,6.40
2013,02,24,17,24,6.40
2013,02,24,17,25,9.60
2013,02,24,17,26,9.60
2013,02,24,17,27,6.40
2013,02,24,17,28,6.40
2013,02,24,17,29,6.40
2013,02,24,17,30,4.80
2013,02,24,17,31,6.40
2013,02,24,17,32,4.80
2013,02,24,17,33,4.80
2013,02,24,17,34,4.80
2013,02,24,17,35,6.40
2013,02,24,17,36,6.40
2013,02,24,17,37,6.40
2013,02,24,17,38,4.80
2013,02,24,17,39,4.80
2013,02,24,17,40,3.20
2013,02,24,17,41,4.80
2013,02,24,17,42,8.10
2013,02,24,17,43,4.80
2013,02,24,17,44,4.80
2013,02,24,17,45,3.20
2013,02,24,17,46,6.40
2013,02,24,17,47,4.80
2013,02,24,17,48,6.40
2013,02,24,17,49,3.20
2013,02,24,17,50,4.80
2013,02,24,17,51,3.20
2013,02,24,17,52,1.60
2013,02,24,17,53,3.20
2013,02,24,17,54,1.60
2013,02,24,17,55,1.60
2013,02,24,17,56,3.20
2013,02,24,17,57,3.20
2013,02,24,17,58,1.60
2013,02,24,17,59,3.20
2013,02,24,18,00,4.80
2013,02,24,18,01,4.80
2013,02,24,18,02,3.20
2013,02,24,18,03,3.20
2013,02,24,18,04,1.60
2013,02,24,18,05,4.80
2013,02,24,18,06,4.80
2013,02,24,18,07,4.80
2013,02,24,18,08,1.60
2013,02,24,18,09,1.60
2013,02,24,18,10,3.20
2013,02,24,18,11,3.20
2013,02,24,18,12,1.60
2013,02,24,18,13,3.20
2013,02,24,18,14,4.80
2013,02,24,18,15,1.60
2013,02,24,18,16,1.60
2013,02,24,18,17,1.60
2013,02,24,18,18,1.60
2013,02,24,18,19,1.60
2013,02,24,18,20,1.60
2013,02,24,18,21,1.60
2013,02,24,18,22,1.60
2013,02,24,18,23,3.20
2013,02,24,18,24,1.60
2013,02,24,18,25,1.60
2013,02,24,18,26,3.20
2013,02,24,18,27,3.20
2013,02,24,18,28,1.60
2013,02,24,18,29,3.20
2013,02,24,18,30,1.60
2013,02,24,18,31,3.20
2013,02,24,18,32,3.20
2013,02,24,18,33,4.80
2013,02,24,18,34,4.80
2013,02,24,18,35,4.80
2013,02,24,18,36,3.20
2013,02,24,18,37,3.20
2013,02,24,18,38,1.60
2013,02,24,18,39,3.20
2013,02,24,18,40,3.20
2013,02,24,18,41,3.20
2013,02,24,18,42,3.20
2013,02,24,18,43,3.20
2013,02,24,18,44,1.60
2013,02,24,18,45,3.20
2013,02,24,18,46,3.20
2013,02,24,18,47,1.60
2013,02,24,18,48,1.60